TimePST,TemperatureF,Dew PointF,Humidity,Sea Level PressureIn,VisibilityMPH,Wind Direction,Wind SpeedMPH,Gust SpeedMPH,PrecipitationIn,Events,Conditions,WindDirDegrees,DateUTC
12:15 AM,17.6,14.0,86,29.92,10.0,North,3.5,-,N/A,,Clear,10,2013-02-21 08:15:00
12:35 AM,17.6,14.0,86,29.92,10.0,North,3.5,-,N/A,,Clear,360,2013-02-21 08:35:00
12:55 AM,17.6,14.0,86,29.92,10.0,Calm,Calm,-,N/A,,Clear,0,2013-02-21 08:55:00
1:15 AM,15.8,12.2,86,29.91,10.0,SSE,4.6,-,N/A,,Clear,150,2013-02-21 09:15:00
1:35 AM,17.6,14.0,86,29.93,10.0,NNW,4.6,-,N/A,,Mostly Cloudy,340,2013-02-21 09:35:00
1:55 AM,19.4,15.8,86,29.93,10.0,WNW,4.6,-,N/A,,Overcast,290,2013-02-21 09:55:00
2:15 AM,19.4,15.8,86,29.94,10.0,Calm,Calm,-,N/A,Snow,Light Snow,0,2013-02-21 10:15:00
2:35 AM,19.4,15.8,86,29.93,10.0,SSE,3.5,-,N/A,,Overcast,160,2013-02-21 10:35:00
2:55 AM,19.4,15.8,86,29.93,10.0,Calm,Calm,-,N/A,,Overcast,0,2013-02-21 10:55:00
3:15 AM,17.6,15.8,93,29.92,10.0,Calm,Calm,-,N/A,,Mostly Cloudy,0,2013-02-21 11:15:00
3:35 AM,19.4,15.8,86,29.93,10.0,Calm,Calm,-,N/A,,Mostly Cloudy,0,2013-02-21 11:35:00
3:55 AM,19.4,15.8,86,29.94,8.0,NNW,4.6,-,N/A,Snow,Light Snow,340,2013-02-21 11:55:00
4:15 AM,19.4,15.8,86,29.96,3.0,Calm,Calm,-,N/A,Snow,Light Snow,0,2013-02-21 12:15:00
4:35 AM,19.4,17.6,93,29.97,0.8,Calm,Calm,-,0.01,Snow,Light Snow,0,2013-02-21 12:35:00
4:55 AM,19.4,17.6,93,29.98,10.0,SSW,3.5,-,0.01,,Mostly Cloudy,200,2013-02-21 12:55:00
5:15 AM,17.6,15.8,93,29.98,8.0,WSW,4.6,-,N/A,Snow,Light Snow,240,2013-02-21 13:15:00
5:35 AM,17.6,15.8,93,29.99,10.0,West,4.6,-,N/A,,Partly Cloudy,270,2013-02-21 13:35:00
6:50 AM,10.4,6.8,85,29.97,10.0,SW,4.6,-,N/A,,Partly Cloudy,230,2013-02-21 14:50:00
8:45 AM,19.4,15.8,86,30.06,10.0,Calm,Calm,-,N/A,,Scattered Clouds,0,2013-02-21 16:45:00
9:45 AM,24.8,14.0,64,30.06,10.0,Calm,Calm,-,N/A,,Scattered Clouds,0,2013-02-21 17:45:00
10:45 AM,28.4,14.0,55,30.06,10.0,NE,11.5,-,N/A,,Scattered Clouds,40,2013-02-21 18:45:00
11:45 AM,30.2,12.2,47,30.06,10.0,North,9.2,-,N/A,,Partly Cloudy,10,2013-02-21 19:45:00
12:45 PM,32.0,10.4,41,30.04,10.0,NW,5.8,-,N/A,,Partly Cloudy,310,2013-02-21 20:45:00
2:55 PM,35.6,5.0,28,30.04,10.0,NNW,6.9,-,N/A,,Clear,340,2013-02-21 22:55:00
4:45 PM,35.6,10.4,35,30.04,10.0,NNW,9.2,-,N/A,,Scattered Clouds,330,2013-02-22 00:45:00
4:55 PM,35.6,10.4,35,30.04,10.0,NNW,9.2,-,N/A,,Clear,330,2013-02-22 00:55:00
5:15 PM,33.8,8.6,35,30.05,10.0,North,8.1,-,N/A,,Clear,350,2013-02-22 01:15:00
5:35 PM,32.0,8.6,38,30.05,10.0,NNW,5.8,-,N/A,,Clear,340,2013-02-22 01:35:00
5:55 PM,32.0,8.6,38,30.06,10.0,NNW,4.6,-,N/A,,Clear,330,2013-02-22 01:55:00
6:15 PM,30.2,12.2,47,30.07,10.0,SSW,3.5,-,N/A,,Clear,200,2013-02-22 02:15:00
6:35 PM,26.6,12.2,55,30.07,10.0,Calm,Calm,-,N/A,,Clear,0,2013-02-22 02:35:00
6:55 PM,24.8,14.0,64,30.08,10.0,South,3.5,-,N/A,,Clear,170,2013-02-22 02:55:00
7:15 PM,24.8,14.0,64,30.08,10.0,Calm,Calm,-,N/A,,Clear,0,2013-02-22 03:15:00
7:35 PM,24.8,14.0,64,30.08,10.0,Calm,Calm,-,N/A,,Clear,0,2013-02-22 03:35:00
7:55 PM,24.8,10.4,54,30.08,10.0,Calm,Calm,-,N/A,,Clear,0,2013-02-22 03:55:00
8:15 PM,23.0,14.0,68,30.09,10.0,Calm,Calm,-,N/A,,Clear,0,2013-02-22 04:15:00
8:35 PM,24.8,14.0,64,30.09,10.0,South,4.6,-,N/A,,Clear,170,2013-02-22 04:35:00
8:55 PM,23.0,12.2,63,30.11,10.0,Calm,Calm,-,N/A,,Clear,0,2013-02-22 04:55:00
9:15 PM,23.0,12.2,63,30.11,10.0,Calm,Calm,-,N/A,,Clear,0,2013-02-22 05:15:00
9:35 PM,21.2,14.0,74,30.12,10.0,ESE,3.5,-,N/A,,Clear,110,2013-02-22 05:35:00
9:55 PM,19.4,14.0,80,30.12,10.0,Calm,Calm,-,N/A,,Clear,0,2013-02-22 05:55:00
10:15 PM,21.2,12.2,68,30.13,10.0,Calm,Calm,-,N/A,,Clear,0,2013-02-22 06:15:00
10:35 PM,21.2,14.0,74,30.13,10.0,Calm,Calm,-,N/A,,Clear,0,2013-02-22 06:35:00
10:55 PM,19.4,14.0,80,30.13,10.0,Calm,Calm,-,N/A,,Clear,0,2013-02-22 06:55:00
11:15 PM,17.6,12.2,79,30.13,10.0,Calm,Calm,-,N/A,,Clear,0,2013-02-22 07:15:00
11:35 PM,19.4,12.2,74,30.13,10.0,Calm,Calm,-,N/A,,Clear,0,2013-02-22 07:35:00
11:55 PM,19.4,10.4,68,30.12,10.0,SSW,4.6,-,N/A,,Clear,210,2013-02-22 07:55:00